When you browse on this site, cookies collect data to enhance your experience and personalize the content and advertising you see.
Visit our Privacy Policy to learn more. By continuing to use the site, you agree to this use of cookies and data.
  • In Portugal
  • List of Countries
  • For 7 days
  • Water Temperature
  • Satellite Maps
  • Weather Map
  • Weather Widgets
  • user-avatar
    Login

    Hourly Weather Struga

    Today, 19 December, Wednesday

    Time Temperature Precipitation Wind Pressure Humidity
    00:00 -3°C° 0 mm 2 mps 732 mmHg 92%
    01:00 -4°C° 0 mm 3 mps 732 mmHg 92%
    02:00 -4°C° 0 mm 3 mps 732 mmHg 91%
    03:00 -4°C° 0 mm 3 mps 731 mmHg 90%
    04:00 -4°C° 0 mm 3 mps 731 mmHg 90%
    05:00 -4°C° 0 mm 3 mps 731 mmHg 89%
    06:00 -4°C° 0 mm 3 mps 730 mmHg 89%
    07:00 -4°C° 0 mm 4 mps 730 mmHg 88%
    08:00 -3°C° 0 mm 4 mps 730 mmHg 85%
    09:00 -3°C° 0 mm 4 mps 730 mmHg 82%
    10:00 -2°C° 0 mm 5 mps 730 mmHg 80%
    11:00 -2°C° 0 mm 5 mps 730 mmHg 78%
    12:00 -2°C° 0 mm 5 mps 729 mmHg 77%
    13:00 -1°C° 0 mm 5 mps 729 mmHg 75%
    14:00 -2°C° 0 mm 5 mps 729 mmHg 76%
    15:00 -2°C° 0 mm 5 mps 729 mmHg 78%
    16:00 -3°C° 0 mm 4 mps 728 mmHg 79%
    17:00 -3°C° 0 mm 4 mps 728 mmHg 79%
    18:00 -3°C° 0 mm 4 mps 728 mmHg 79%
    19:00 -3°C° 0 mm 4 mps 728 mmHg 79%
    20:00 -3°C° 0.1 mm 4 mps 728 mmHg 79%
    21:00 -3°C° 0.1 mm 4 mps 728 mmHg 80%
    22:00 -3°C° 0.1 mm 4 mps 727 mmHg 80%
    23:00 -3°C° 0.2 mm 4 mps 727 mmHg 81%

    Tomorrow, 20 December, Thursday

    Time Temperature Precipitation Wind Pressure Humidity
    00:00 -2°C° 0.2 mm 3 mps 727 mmHg 81%
    01:00 -2°C° 0.2 mm 3 mps 727 mmHg 81%
    02:00 -4°C° 0.2 mm 3 mps 727 mmHg 82%
    03:00 -4°C° 0.2 mm 3 mps 727 mmHg 83%
    04:00 -4°C° 0.2 mm 3 mps 727 mmHg 83%
    05:00 -4°C° 0.2 mm 3 mps 727 mmHg 84%
    06:00 -4°C° 0.2 mm 3 mps 727 mmHg 85%
    07:00 -5°C° 0.2 mm 3 mps 727 mmHg 85%
    08:00 -4°C° 0.1 mm 3 mps 727 mmHg 85%
    09:00 -4°C° 0.1 mm 3 mps 727 mmHg 84%
    10:00 -4°C° 0.1 mm 4 mps 727 mmHg 84%
    11:00 -2°C° 0.2 mm 3 mps 727 mmHg 84%
    12:00 -2°C° 0.2 mm 3 mps 727 mmHg 85%
    13:00 -1°C° 0.2 mm 3 mps 727 mmHg 86%
    14:00 -1°C° 0.1 mm 3 mps 727 mmHg 87%
    15:00 -1°C° 0.1 mm 3 mps 727 mmHg 88%
    16:00 -1°C° 0.1 mm 3 mps 727 mmHg 89%
    17:00 -1°C° 0 mm 3 mps 727 mmHg 89%
    18:00 -1°C° 0 mm 3 mps 727 mmHg 89%
    19:00 -1°C° 0 mm 4 mps 727 mmHg 89%
    20:00 -1°C° 0 mm 4 mps 727 mmHg 89%
    21:00 -1°C° 0 mm 4 mps 727 mmHg 90%
    22:00 -1°C° 0 mm 4 mps 728 mmHg 90%
    23:00 -1°C° 0 mm 4 mps 728 mmHg 90%

    Day after tomorrow, 21 December, Friday

    Time Temperature Precipitation Wind Pressure Humidity
    00:00 -1°C° 0 mm 4 mps 727 mmHg 90%
    01:00 -1°C° 0 mm 4 mps 727 mmHg 90%
    02:00 -1°C° 0 mm 4 mps 727 mmHg 90%
    03:00 -1°C° 0 mm 4 mps 727 mmHg 89%
    04:00 -1°C° 0 mm 4 mps 727 mmHg 89%
    05:00 -1°C° 0.1 mm 4 mps 726 mmHg 89%
    06:00 -1°C° 0.1 mm 4 mps 726 mmHg 89%
    07:00 -1°C° 0.1 mm 4 mps 726 mmHg 89%
    08:00 0°C° 0 mm 4 mps 725 mmHg 88%
    09:00 0°C° 0 mm 5 mps 725 mmHg 88%
    10:00 0°C° 0 mm 5 mps 725 mmHg 87%
    11:00 0°C° 0.2 mm 5 mps 724 mmHg 87%
    12:00 +1°C° 0.2 mm 5 mps 723 mmHg 86%
    13:00 +1°C° 0.2 mm 5 mps 723 mmHg 85%
    14:00 +1°C° 0.7 mm 6 mps 722 mmHg 85%
    15:00 +1°C° 0.7 mm 6 mps 721 mmHg 85%
    16:00 -1°C° 0.7 mm 7 mps 720 mmHg 84%
    17:00 0°C° 1.3 mm 7 mps 719 mmHg 85%
    18:00 +2°C° 1.3 mm 7 mps 719 mmHg 85%
    19:00 +2°C° 1.3 mm 7 mps 718 mmHg 86%
    20:00 +3°C° 0.1 mm 7 mps 718 mmHg 87%
    21:00 +3°C° 0.1 mm 7 mps 718 mmHg 88%
    22:00 +4°C° 0.1 mm 7 mps 718 mmHg 88%
    23:00 +4°C° 0 mm 7 mps 719 mmHg 87%

    22 December, Saturday

    Time Temperature Precipitation Wind Pressure Humidity
    00:00 +3°C° 0 mm 6 mps 719 mmHg 86%
    01:00 +3°C° 0 mm 6 mps 719 mmHg 84%
    02:00 +3°C° 0 mm 6 mps 719 mmHg 84%
    03:00 +2°C° 0 mm 6 mps 720 mmHg 84%
    04:00 +2°C° 0 mm 6 mps 720 mmHg 83%
    05:00 +2°C° 0 mm 5 mps 720 mmHg 84%
    06:00 +2°C° 0 mm 5 mps 719 mmHg 84%
    07:00 +3°C° 0 mm 4 mps 719 mmHg 85%
    08:00 +2°C° 0.1 mm 5 mps 719 mmHg 86%
    09:00 +3°C° 0.1 mm 5 mps 718 mmHg 87%
    10:00 +3°C° 0.1 mm 5 mps 718 mmHg 88%
    11:00 +4°C° 0.3 mm 6 mps 718 mmHg 87%
    12:00 +5°C° 0.3 mm 7 mps 717 mmHg 85%
    13:00 +5°C° 0.3 mm 8 mps 717 mmHg 84%
    14:00 +5°C° 0.2 mm 7 mps 717 mmHg 83%
    15:00 +4°C° 0.2 mm 7 mps 718 mmHg 83%
    16:00 +4°C° 0.2 mm 7 mps 719 mmHg 82%
    17:00 +4°C° 0 mm 7 mps 719 mmHg 83%
    18:00 +3°C° 0 mm 6 mps 720 mmHg 84%
    19:00 +3°C° 0 mm 6 mps 720 mmHg 85%
    20:00 +3°C° 0 mm 6 mps 721 mmHg 83%
    21:00 +3°C° 0 mm 6 mps 721 mmHg 82%
    22:00 +2°C° 0 mm 6 mps 721 mmHg 81%
    23:00 +3°C° 0.3 mm 7 mps 722 mmHg 82%

    23 December, Sunday

    Time Temperature Precipitation Wind Pressure Humidity
    00:00 +3°C° 0.3 mm 7 mps 722 mmHg 82%
    01:00 +2°C° 0.3 mm 8 mps 722 mmHg 83%
    02:00 +2°C° 0.2 mm 8 mps 723 mmHg 84%
    03:00 +2°C° 0.2 mm 7 mps 724 mmHg 84%
    04:00 +2°C° 0.2 mm 6 mps 724 mmHg 84%
    05:00 +2°C° 0.1 mm 6 mps 724 mmHg 84%
    06:00 +2°C° 0.1 mm 6 mps 725 mmHg 85%
    07:00 +2°C° 0.1 mm 5 mps 725 mmHg 85%
    08:00 +2°C° 0.1 mm 6 mps 726 mmHg 84%
    09:00 +2°C° 0.1 mm 6 mps 726 mmHg 83%
    10:00 +2°C° 0.1 mm 6 mps 726 mmHg 82%
    11:00 +2°C° 0 mm 6 mps 726 mmHg 80%
    12:00 +3°C° 0 mm 6 mps 726 mmHg 79%
    13:00 +3°C° 0 mm 6 mps 726 mmHg 78%
    14:00 +2°C° 0.1 mm 6 mps 726 mmHg 79%
    15:00 +2°C° 0.1 mm 6 mps 727 mmHg 80%
    16:00 +2°C° 0.1 mm 5 mps 727 mmHg 82%
    17:00 +2°C° 0.1 mm 6 mps 727 mmHg 82%
    18:00 +2°C° 0.1 mm 6 mps 727 mmHg 82%
    19:00 +1°C° 0.1 mm 6 mps 727 mmHg 82%
    20:00 +1°C° 0 mm 6 mps 727 mmHg 82%
    21:00 +1°C° 0 mm 6 mps 728 mmHg 82%
    22:00 +1°C° 0 mm 6 mps 728 mmHg 82%
    23:00 +1°C° 0.1 mm 6 mps 728 mmHg 84%

    24 December, Monday

    Time Temperature Precipitation Wind Pressure Humidity
    00:00 +1°C° 0.1 mm 6 mps 729 mmHg 85%
    01:00 +1°C° 0.1 mm 5 mps 729 mmHg 86%
    02:00 +1°C° 0.1 mm 5 mps 729 mmHg 87%
    03:00 +1°C° 0.1 mm 4 mps 730 mmHg 88%
    04:00 0°C° 0.1 mm 4 mps 730 mmHg 89%
    05:00 +1°C° 0.1 mm 3 mps 730 mmHg 90%
    06:00 +1°C° 0.1 mm 3 mps 730 mmHg 91%
    07:00 +2°C° 0.1 mm 2 mps 731 mmHg 92%
    08:00 +1°C° 0.1 mm 3 mps 731 mmHg 90%
    09:00 +2°C° 0.1 mm 3 mps 732 mmHg 88%
    10:00 +1°C° 0.1 mm 4 mps 732 mmHg 86%
    11:00 +1°C° 0.1 mm 4 mps 732 mmHg 83%
    12:00 +3°C° 0.1 mm 4 mps 732 mmHg 81%
    13:00 +2°C° 0.1 mm 5 mps 732 mmHg 78%
    14:00 +3°C° 0.1 mm 4 mps 733 mmHg 81%
    15:00 +1°C° 0.1 mm 4 mps 733 mmHg 83%
    16:00 +2°C° 0.1 mm 3 mps 733 mmHg 85%
    17:00 +1°C° 0 mm 3 mps 733 mmHg 86%
    18:00 +1°C° 0 mm 3 mps 733 mmHg 88%
    19:00 +1°C° 0 mm 3 mps 733 mmHg 89%
    20:00 +1°C° 0 mm 2 mps 733 mmHg 89%
    21:00 +1°C° 0 mm 2 mps 734 mmHg 89%
    22:00 +1°C° 0 mm 2 mps 734 mmHg 90%
    23:00 +1°C° 0 mm 2 mps 734 mmHg 90%
    Show more